Date String (YYYY-MM-DD hh:mm:ss) UTC,Instrument flags,absolute air pressure of the measurement (hPa),sample flow rate (lpm),inlet stack bypass flow (lpm),air temperature of the measurement (°C),ambient temperature measured by the external sensor (°C),aerosol sample conditioner tube jacket temperature (°C),OPC LED temperature (°C),internal box temperature (°C),relative humidity of the measurement (%),span deviation,mass concentration of particles derived from Lorenz-Mie calculation of OPC scattering (μg/m³),mass concentration of particles derived from Lorenz-Mie calculation of OPC scattering (μg/m³),mass concentration of particles derived from Lorenz-Mie calculation of OPC scattering (μg/m³)
DateTimeUTC,F1_M11,P_M11,Q1_M11,Q2_M11,T1_M11,T2_M11,T3_M11,T4_M11,T5_M11,U1_M11,ZSPAN_M11,X2_M11,X0_M11,X1_M11
2023-09-11 05:00:00,SystemResetWarning,0838.0,4.99,000.00,029.7,026.9,000.0,037.6,030.3,34.1,0000.4,0009.69,0015.14,0009.06
2023-09-11 05:01:00,SystemResetWarning,0838.0,4.99,000.00,029.7,027.0,000.0,037.7,030.3,34.1,0000.6,0009.62,0015.19,0009.00
2023-09-11 05:02:00,SystemResetWarning,0838.0,5.01,000.00,029.7,027.1,000.0,037.7,030.4,34.1,0000.4,0009.53,0015.02,0008.92
2023-09-11 05:03:00,SystemResetWarning,0838.0,5.01,000.00,029.7,027.2,000.0,037.7,030.4,34.0,0000.6,0009.48,0014.95,0008.86
2023-09-11 05:04:00,SystemResetWarning,0838.0,5.00,000.00,029.7,027.3,000.0,037.7,030.5,34.0,0000.6,0009.39,0014.79,0008.80
2023-09-11 05:05:00,SystemResetWarning,0838.0,4.98,000.00,029.7,027.4,000.0,037.7,030.5,34.0,0000.7,0009.31,0014.66,0008.75
2023-09-11 05:06:00,SystemResetWarning,0838.1,4.99,000.00,029.7,027.4,000.0,037.8,030.6,34.0,0000.6,0009.27,0014.57,0008.73
2023-09-11 05:07:00,SystemResetWarning,0838.2,5.00,000.00,029.7,027.5,000.0,037.8,030.6,33.9,0000.8,0009.27,0014.31,0008.73
2023-09-11 05:08:00,SystemResetWarning,0838.2,5.00,000.00,029.7,027.5,000.0,037.8,030.6,33.9,0000.9,0009.29,0014.40,0008.74
2023-09-11 05:09:00,SystemResetWarning,0838.2,5.01,000.00,029.7,027.6,000.0,037.8,030.7,33.9,0000.6,0009.28,0014.40,0008.73
2023-09-11 05:10:00,SystemResetWarning,0838.2,5.01,000.00,029.7,027.6,000.0,037.8,030.7,33.8,0000.4,0009.26,0014.36,0008.74
2023-09-11 05:11:00,SystemResetWarning,0838.1,5.00,000.00,029.7,027.6,000.0,037.8,030.7,33.8,0000.4,0009.24,0014.33,0008.73
2023-09-11 05:12:00,SystemResetWarning,0838.2,5.00,000.00,029.7,027.7,000.0,037.8,030.8,33.8,0000.4,0009.23,0014.24,0008.71
2023-09-11 05:13:00,SystemResetWarning,0838.3,4.99,000.00,029.7,027.7,000.0,037.8,030.8,33.7,0000.4,0009.22,0014.12,0008.68
2023-09-11 05:14:00,SystemResetWarning,0838.3,4.99,000.00,029.7,027.7,000.0,037.8,030.8,33.7,0000.4,0009.21,0014.08,0008.67
2023-09-11 05:15:00,SystemResetWarning,0838.3,5.01,000.00,029.7,027.8,000.0,037.8,030.8,33.8,0000.4,0009.24,0014.15,0008.67
2023-09-11 05:16:00,SystemResetWarning,0838.4,5.00,000.00,029.7,027.8,000.0,037.8,030.9,33.8,0000.4,0009.22,0014.10,0008.66
2023-09-11 05:17:00,SystemResetWarning,0838.4,5.01,000.00,029.7,027.8,000.0,037.9,030.9,33.8,0000.4,0009.18,0014.03,0008.61
2023-09-11 05:18:00,SystemResetWarning,0838.4,5.00,000.00,029.7,027.8,000.0,037.9,030.9,33.8,0000.2,0009.16,0014.05,0008.56
2023-09-11 05:19:00,SystemResetWarning,0838.4,5.00,000.00,029.7,027.8,000.0,037.9,030.9,33.7,-000.2,0009.06,0013.91,0008.49
2023-09-11 05:20:00,SystemResetWarning,0838.4,4.97,000.00,029.7,026.7,000.0,037.8,030.7,33.7,-000.2,0008.96,0013.70,0008.43
2023-09-11 05:21:00,SystemResetWarning,0838.4,5.01,000.00,029.6,025.2,000.0,037.7,030.4,33.9,-000.2,0008.93,0013.66,0008.36
2023-09-11 05:22:00,SystemResetWarning,0838.3,5.01,000.00,029.5,024.7,000.0,037.6,030.2,34.1,-000.0,0008.89,0013.59,0008.30
2023-09-11 05:23:00,SystemResetWarning,0838.3,5.00,000.00,029.3,024.9,000.0,037.6,030.0,34.5,-000.1,0008.84,0013.51,0008.28
2023-09-11 05:24:00,SystemResetWarning,0838.3,5.00,000.00,029.2,025.2,000.0,037.6,029.9,34.8,-000.1,0008.80,0013.44,0008.25
2023-09-11 05:25:00,SystemResetWarning,0838.3,4.99,000.00,029.1,025.6,000.0,037.6,029.9,34.9,-000.2,0008.76,0013.41,0008.22
2023-09-11 05:26:00,SystemResetWarning,0838.2,5.00,000.00,029.1,025.9,000.0,037.6,030.0,35.1,-000.1,0008.71,0013.29,0008.22
2023-09-11 05:27:00,SystemResetWarning,0838.3,5.01,000.00,029.3,026.2,000.0,037.5,030.2,34.8,-000.2,0008.70,0013.27,0008.18
2023-09-11 05:28:00,SystemResetWarning,0838.3,4.98,000.00,029.4,026.4,000.0,037.5,030.3,34.4,-000.3,0008.70,0013.23,0008.17
2023-09-11 05:29:00,SystemResetWarning,0838.3,5.01,000.00,029.5,026.7,000.0,037.5,030.3,34.3,-000.3,0008.65,0013.12,0008.15
2023-09-11 05:30:00,SystemResetWarning,0838.3,4.99,000.00,029.6,026.8,000.0,037.5,030.4,34.3,-000.2,0008.62,0013.07,0008.12
2023-09-11 05:31:00,SystemResetWarning,0838.3,4.99,000.00,029.6,027.0,000.0,037.6,030.4,34.2,-000.3,0008.60,0013.10,0008.09
2023-09-11 05:32:00,SystemResetWarning,0838.4,5.01,000.00,029.6,027.1,000.0,037.6,030.5,34.2,-000.4,0008.56,0013.52,0008.07
2023-09-11 05:33:00,SystemResetWarning,0838.4,5.02,000.00,029.7,027.2,000.0,037.6,030.5,34.2,-000.4,0008.55,0013.67,0008.07
2023-09-11 05:34:00,SystemResetWarning,0838.4,4.99,000.00,029.7,027.3,000.0,037.7,030.5,34.2,-000.5,0008.55,0013.73,0008.06
2023-09-11 05:35:00,SystemResetWarning,0838.5,4.99,000.00,029.7,027.4,000.0,037.7,030.5,34.2,-000.6,0008.54,0013.79,0008.05
2023-09-11 05:36:00,SystemResetWarning,0838.4,5.00,000.00,029.7,027.4,000.0,037.7,030.5,34.2,-000.5,0008.50,0013.74,0008.02
2023-09-11 05:37:00,SystemResetWarning,0838.4,5.01,000.00,029.7,027.5,000.0,037.7,030.6,34.2,-000.7,0008.47,0013.72,0007.98
2023-09-11 05:38:00,SystemResetWarning,0838.4,5.00,000.00,029.7,027.5,000.0,037.8,030.6,34.2,-000.6,0008.43,0013.67,0007.97
2023-09-11 05:39:00,SystemResetWarning,0838.5,5.00,000.00,029.7,027.6,000.0,037.8,030.6,34.2,-000.3,0008.41,0013.65,0007.95
2023-09-11 05:40:00,SystemResetWarning,0838.4,4.99,000.00,029.7,027.6,000.0,037.8,030.7,34.2,-000.2,0008.40,0013.63,0007.95
2023-09-11 05:41:00,SystemResetWarning,0838.4,4.99,000.00,029.7,027.6,000.0,037.8,030.7,34.2,-000.1,0008.42,0013.69,0007.95
2023-09-11 05:42:00,SystemResetWarning,0838.4,5.01,000.00,029.7,027.7,000.0,037.8,030.8,34.2,0000.0,0008.45,0013.70,0007.98
2023-09-11 05:43:00,SystemResetWarning,0838.4,5.01,000.00,029.7,027.7,000.0,037.8,030.8,34.1,0000.1,0008.44,0013.42,0007.97
2023-09-11 05:44:00,SystemResetWarning,0838.4,5.00,000.00,029.7,027.7,000.0,037.8,030.8,34.1,0000.1,0008.41,0013.16,0007.96
2023-09-11 05:45:00,SystemResetWarning,0838.4,4.99,000.00,029.7,027.7,000.0,037.8,030.8,34.1,0000.4,0008.35,0013.03,0007.93
2023-09-11 05:46:00,SystemResetWarning,0838.4,4.99,000.00,029.7,027.8,000.0,037.8,030.8,34.0,0000.5,0008.29,0012.85,0007.89
2023-09-11 05:47:00,SystemResetWarning,0838.4,5.00,000.00,029.7,027.8,000.0,037.9,030.9,33.7,0000.5,0008.31,0012.91,0007.90
2023-09-11 05:48:00,SystemResetWarning,0838.4,5.02,000.00,029.7,027.8,000.0,037.9,030.9,33.5,0000.5,0008.29,0012.84,0007.88
2023-09-11 05:49:00,SystemResetWarning,0838.4,5.00,000.00,029.7,027.8,000.0,037.9,030.9,33.5,0000.5,0008.25,0012.76,0007.86
2023-09-11 05:50:00,SystemResetWarning,0838.4,4.99,000.00,029.7,027.9,000.0,037.9,030.9,33.5,0000.2,0008.24,0012.91,0007.84
2023-09-11 05:51:00,SystemResetWarning,0838.4,5.02,000.00,029.7,027.9,000.0,037.9,030.9,33.4,0000.2,0008.24,0013.33,0007.82
2023-09-11 05:52:00,SystemResetWarning,0838.4,5.01,000.00,029.7,027.9,000.0,037.9,030.9,33.3,0000.3,0008.23,0013.46,0007.82
2023-09-11 05:53:00,SystemResetWarning,0838.5,5.00,000.00,029.7,027.9,000.0,037.9,031.0,33.3,0000.3,0008.24,0013.49,0007.82
2023-09-11 05:54:00,SystemResetWarning,0838.4,5.00,000.00,029.7,027.7,000.0,037.9,030.9,33.4,0000.5,0008.30,0013.74,0007.86
2023-09-11 05:55:00,SystemResetWarning,0838.3,4.98,000.00,029.7,026.2,000.0,037.8,030.6,33.4,0000.5,0008.34,0013.77,0007.88
2023-09-11 05:56:00,SystemResetWarning,0838.3,5.01,000.00,029.6,024.9,000.0,037.7,030.3,33.6,0000.2,0008.44,0013.99,0007.91
2023-09-11 05:57:00,SystemResetWarning,0838.3,5.01,000.00,029.4,024.7,000.0,037.7,030.1,33.8,0000.2,0008.55,0014.23,0007.99
2023-09-11 05:58:00,SystemResetWarning,0838.3,4.99,000.00,029.2,024.9,000.0,037.6,029.9,34.3,0000.2,0008.60,0014.26,0008.01
2023-09-11 05:59:00,SystemResetWarning,0838.2,5.00,000.00,029.1,025.3,000.0,037.6,029.9,34.5,-000.0,0008.65,0014.34,0008.04
